Theta_e
300 302 302 302 303 304 303 303 304 302 302 304 303 305 303 305 303 302 305 306 307 308 309 309 309 308 309 312 313 312 310 310 311 311 312 314 316 315 314 314 311 302 295 295
300 301 300 300 302 303 301 302 302 301 301 303 301 300 299 300 301 303 304 304 305 306 307 307 306 306 306 308 310 312 311 310 310 310 310 315 318 317 317 317 312 300 296 294
299 299 299 301 301 303 302 303 302 302 301 300 299 300 299 298 299 302 303 304 304 304 304 304 304 304 304 304 306 309 310 310 310 309 308 310 315 313 313 314 305 303 295 294
299 299 299 299 299 302 302 301 301 301 301 302 298 300 297 298 298 298 299 300 302 302 302 302 303 303 303 304 304 307 308 308 309 308 306 307 311 313 313 312 308 306 296 294
299 299 298 299 299 300 301 299 301 301 301 300 298 298 298 298 299 299 299 300 300 300 300 302 303 302 301 302 303 305 306 307 307 307 306 306 308 308 307 305 301 299 296 294
299 295 297 299 296 299 298 298 298 296 297 299 298 299 302 298 299 300 299 299 299 300 301 302 303 303 303 303 303 304 305 306 306 306 306 306 307 305 304 302 300 299 296 294
297 296 295 296 297 298 298 299 303 303 302 303 295 297 303 299 298 297 298 297 298 300 301 302 302 302 303 303 303 304 304 305 305 305 305 305 304 303 302 302 301 300 298 296
299 299 295 295 298 300 299 301 306 307 301 299 295 298 299 297 296 298 298 297 298 299 300 301 301 301 301 301 302 302 303 303 303 303 304 303 302 302 301 301 300 299 298 296
300 301 293 293 293 296 298 300 303 304 296 304 300 297 297 296 297 295 294 295 297 298 299 300 299 300 300 300 300 301 301 301 302 302 302 301 301 301 301 300 299 298 296 295
298 299 292 292 292 293 296 298 303 303 303 304 302 297 300 297 296 294 293 293 296 298 299 299 299 299 299 299 299 299 300 300 300 300 300 300 300 300 299 299 298 298 297 294
297 300 294 292 294 297 294 297 299 301 303 305 298 300 296 297 296 294 292 295 297 298 298 299 299 299 299 298 298 298 298 299 299 299 299 299 299 298 298 298 298 297 296 294
298 299 299 293 290 289 290 297 302 302 299 297 299 299 292 293 293 293 292 296 296 297 298 299 299 299 299 298 298 297 297 297 298 298 298 297 297 297 297 297 297 296 295 293
298 298 298 299 294 291 291 293 295 297 299 299 300 299 292 292 292 293 293 296 296 297 296 296 296 298 298 298 297 296 297 297 297 297 297 297 297 296 296 296 296 295 294 293
298 299 297 298 298 294 293 293 295 298 298 298 298 298 296 295 294 293 295 296 296 295 294 294 294 294 294 295 296 297 297 296 296 296 296 296 296 296 296 295 295 294 294 292
297 299 291 293 295 294 296 293 294 297 296 298 298 298 296 294 294 295 296 295 295 293 293 292 293 293 293 294 294 294 295 296 296 296 296 296 296 295 294 294 293 293 292 291
294 296 292 292 296 297 298 297 294 295 296 297 297 296 294 295 295 295 295 296 295 292 292 293 294 293 293 294 294 294 294 294 295 295 295 295 295 294 294 293 293 292 291 291
293 294 294 293 294 297 297 296 294 293 293 298 298 297 295 295 296 297 297 296 294 291 291 291 293 293 293 293 293 293 294 294 294 294 295 295 294 294 293 292 292 291 291 290
291 293 295 297 294 298 293 293 293 295 294 293 294 294 296 296 297 297 297 295 292 290 291 291 291 292 292 292 292 293 293 293 293 294 294 294 293 293 292 292 291 290 290 289
293 291 292 296 294 294 295 292 292 294 291 290 290 292 293 296 294 291 290 290 290 289 289 289 289 291 291 291 292 292 293 293 293 293 293 293 293 292 291 291 290 290 289 288
292 293 290 290 296 291 289 289 289 290 292 290 290 290 290 292 294 290 287 288 288 288 288 288 289 290 290 290 291 291 292 292 292 292 292 291 291 290 290 290 289 289 288 288
282 292 292 291 293 295 289 289 290 295 291 290 290 290 290 288 286 286 287 287 287 287 287 288 289 290 290 290 289 290 291 291 291 291 291 290 290 289 289 289 288 288 287 287
287 288 289 292 295 295 287 288 287 287 288 288 290 289 289 289 287 287 287 288 288 288 288 288 288 288 288 288 288 288 289 290 290 290 290 289 289 289 288 288 287 287 286 286
283 285 286 289 289 288 287 287 287 286 287 287 288 287 287 287 288 289 287 287 287 287 288 287 287 287 287 287 287 287 288 289 289 289 288 288 288 288 287 287 287 286 285 285
278 281 283 283 285 288 288 288 287 286 286 286 287 287 287 287 287 287 287 287 287 286 287 287 286 285 285 285 286 286 287 287 287 287 287 287 287 287 286 286 285 285 284 284
282 280 277 280 284 286 288 287 286 286 286 287 286 286 286 286 286 287 287 286 286 286 286 286 285 284 283 284 285 285 286 286 285 286 286 286 286 286 285 285 284 284 284 284
283 282 283 285 283 283 282 281 282 284 284 283 283 285 285 284 285 286 286 286 286 286 285 285 284 283 283 283 283 284 284 284 283 284 285 284 284 284 283 282 281 280 282 282
Wind_Speed
5 5 13 20 15 6 2 5 6 3 5 5 8 14 9 18 11 16 28 33 35 37 36 37 35 31 29 32 34 36 37 36 36 37 36 32 31 24 19 23 22 24 24 23
3 14 18 5 9 11 5 8 14 4 3 5 3 14 10 10 11 22 30 34 40 38 38 38 34 32 33 34 35 38 39 38 37 38 36 33 28 24 24 24 23 28 27 26
12 5 8 10 6 13 17 19 14 4 2 3 3 15 6 9 12 25 32 40 36 37 36 34 32 29 27 32 36 38 40 38 38 38 38 35 31 30 28 27 32 33 28 26
9 5 4 5 14 15 19 12 5 5 4 6 2 9 5 5 8 6 15 15 22 21 19 19 21 23 25 24 27 34 38 38 38 38 40 39 36 35 33 32 30 27 27 29
10 7 7 15 13 12 11 6 10 8 8 3 4 2 5 1 6 11 5 5 3 5 8 9 9 7 11 17 21 25 32 36 36 36 38 37 36 34 30 29 29 29 30 29
4 5 5 7 3 10 7 5 5 4 4 1 8 7 10 6 9 2 3 0 2 2 3 4 4 1 4 8 13 18 24 30 33 35 35 36 35 34 31 29 30 31 30 29
2 5 3 2 4 4 1 6 2 1 2 8 3 7 19 5 6 6 6 8 11 18 20 19 14 10 4 2 5 11 17 24 29 33 34 34 35 33 32 31 31 31 31 31
8 8 10 7 5 8 11 5 5 8 4 2 3 7 7 4 3 8 7 15 17 20 20 17 14 12 7 4 1 7 12 18 24 28 30 32 34 34 33 32 30 30 30 30
6 7 1 4 3 1 6 4 9 4 2 1 4 7 9 6 2 2 10 14 15 14 14 11 11 10 8 5 2 4 8 12 18 22 27 31 34 35 33 31 30 30 28 28
4 6 2 1 1 1 2 2 5 2 5 5 6 5 8 1 6 6 6 9 12 7 8 9 7 6 4 3 4 7 10 12 15 19 24 28 31 33 33 32 31 29 28 27
3 1 1 0 6 12 1 3 3 2 3 5 2 6 7 8 10 16 9 14 9 7 5 5 4 5 5 6 6 6 9 12 15 18 21 24 27 30 31 31 30 28 27 27
3 2 6 7 1 2 1 7 17 5 6 3 1 8 3 8 8 11 10 10 8 6 4 2 3 5 7 8 8 7 8 10 12 15 18 20 23 26 28 29 28 27 26 26
1 3 2 5 2 2 3 4 2 1 2 6 8 7 5 5 8 11 13 8 7 4 5 5 2 4 7 9 10 9 9 9 10 12 14 17 20 22 24 25 25 25 25 25
5 5 6 4 3 1 1 2 5 4 7 8 11 2 2 1 6 6 6 5 5 5 5 5 4 4 4 6 10 12 11 11 10 10 12 15 17 18 20 21 22 23 24 24
2 4 2 5 5 4 5 5 6 13 13 10 12 13 7 6 4 4 2 3 5 6 4 5 7 8 8 8 9 9 10 12 11 10 11 11 13 16 17 19 19 21 23 23
4 3 2 4 7 8 8 11 10 14 13 19 16 19 4 1 5 6 7 5 5 5 3 6 7 9 11 11 11 9 6 7 12 11 9 9 10 13 15 16 17 19 21 23
2 3 1 4 5 2 8 13 15 7 7 15 13 16 7 2 5 9 11 7 5 2 4 5 7 8 11 12 12 9 5 3 9 10 8 8 9 10 12 13 15 17 20 22
5 4 4 3 1 5 6 1 5 14 9 10 14 7 2 4 13 14 10 3 3 1 3 5 6 6 8 11 11 9 6 0 7 9 8 8 8 9 10 11 13 16 19 21
14 3 3 3 3 7 8 4 3 3 5 14 15 14 9 11 8 3 4 4 4 3 4 5 6 7 9 9 9 9 6 2 5 8 7 6 7 7 9 10 12 14 18 21
7 9 3 2 4 4 3 7 14 3 3 12 16 15 16 4 4 1 6 6 6 5 5 6 7 8 9 9 8 8 4 3 6 9 8 6 6 6 7 9 12 14 17 20
3 2 13 11 6 3 8 12 16 3 5 14 16 19 23 9 5 6 7 8 9 9 8 8 8 8 9 8 8 6 4 3 6 8 8 8 7 7 7 9 12 15 19 22
3 2 3 3 7 7 21 6 7 3 9 16 17 23 23 20 22 16 16 15 14 12 11 10 9 8 8 7 6 5 3 4 5 7 8 9 9 9 9 10 14 17 22 26
2 4 2 1 0 3 16 19 13 13 10 16 18 23 23 26 25 21 22 25 22 19 15 13 11 9 9 7 5 5 3 4 5 6 8 9 9 10 11 12 16 21 25 28
4 3 3 4 3 7 6 7 1 5 7 6 8 13 13 15 17 19 19 21 25 23 18 15 12 10 8 6 5 3 2 3 5 6 9 10 10 12 14 16 18 22 27 31
5 5 4 5 4 10 5 10 7 7 5 0 4 6 9 11 12 15 17 21 21 22 19 15 13 10 7 6 3 2 2 3 4 7 10 11 12 13 16 17 19 22 25 27
6 7 4 9 1 4 5 7 7 4 2 2 5 9 9 13 13 14 16 19 20 20 19 15 12 10 7 5 2 1 4 6 5 8 11 12 14 16 18 21 23 20 22 25
Wind_Direction
194 180 216 212 209 223 221 216 231 224 198 171 230 253 241 268 259 253 263 266 265 263 267 268 264 260 254 246 243 241 237 239 236 232 233 231 233 226 227 237 244 245 240 234
122 226 229 192 202 229 220 239 254 266 171 189 291 267 230 233 252 247 257 262 264 264 268 269 271 267 256 251 246 240 238 237 237 234 233 233 237 235 233 236 233 241 238 232
214 200 179 183 186 217 229 231 235 219 151 204 328 284 225 249 242 249 252 257 266 269 275 277 274 266 258 248 245 241 239 237 235 234 227 231 239 238 235 231 222 229 232 233
236 246 195 206 234 199 236 215 194 174 130 250 104 276 275 236 245 238 256 262 269 276 271 276 277 262 248 246 244 241 238 237 235 233 229 235 244 241 241 235 231 235 230 232
227 185 191 223 223 182 244 184 191 196 204 127 218 252 266 349 267 256 230 228 256 277 279 295 297 271 236 237 242 243 238 236 234 235 235 239 246 241 243 238 230 230 230 228
274 321 187 189 78 188 150 91 66 75 119 196 203 170 265 192 216 206 178 160 287 18 30 34 30 71 203 221 230 237 238 236 236 236 238 240 241 241 242 238 232 230 229 229
232 208 207 165 112 60 206 148 151 18 159 232 172 172 250 272 227 191 155 122 105 91 81 73 70 70 81 164 218 231 235 237 239 238 239 240 237 241 245 245 242 235 230 230
228 248 173 178 213 180 191 210 157 198 193 239 115 219 250 254 303 218 157 132 117 89 79 71 66 63 61 67 194 236 238 237 238 240 240 240 239 241 245 247 245 241 238 237
204 251 68 15 102 111 198 218 153 90 141 84 227 269 296 227 278 112 137 135 122 102 72 78 68 57 42 25 310 257 249 246 244 245 243 241 240 241 245 248 247 243 241 240
291 288 17 8 100 80 219 204 83 193 166 215 244 261 235 174 193 183 160 144 124 94 58 67 53 29 10 343 293 266 254 252 251 249 246 245 244 244 245 246 247 246 243 239
350 270 18 22 214 190 130 172 125 136 202 195 233 249 213 231 196 170 168 139 96 91 75 47 20 344 321 306 297 278 264 254 252 249 246 245 244 244 245 246 247 245 243 240
201 227 261 226 33 354 356 213 197 196 203 238 141 258 316 248 165 150 150 130 111 100 87 41 330 311 309 302 289 275 270 265 256 248 246 245 244 243 244 245 246 245 241 238
247 205 306 310 347 12 210 200 197 169 77 198 199 257 0 78 107 140 134 115 105 101 92 75 36 297 285 280 276 271 261 257 252 247 244 242 241 242 242 244 245 244 239 234
326 198 209 200 158 101 309 281 204 163 225 219 238 318 318 131 139 162 139 89 125 119 90 66 50 25 335 309 292 275 263 252 246 243 240 240 241 243 243 244 244 240 235 231
286 260 188 263 230 194 225 221 221 214 234 223 253 243 231 222 179 159 143 189 164 138 110 68 41 10 359 359 338 306 264 245 238 235 237 238 239 241 242 243 242 237 231 227
328 289 346 274 254 217 247 236 221 228 247 249 259 270 260 278 203 195 208 207 185 185 102 68 34 12 5 359 350 341 298 245 220 217 222 228 233 239 241 242 239 232 225 223
248 289 289 265 325 185 269 233 210 200 211 227 236 258 191 208 324 286 254 193 179 164 47 32 28 15 11 3 357 351 342 260 207 196 202 215 224 231 237 239 234 226 220 217
232 189 293 277 12 230 243 301 198 215 32 355 307 309 306 237 238 244 266 268 166 122 34 17 18 28 8 6 4 6 9 306 186 182 190 204 215 226 231 230 226 221 215 211
229 211 226 267 229 305 316 14 1 141 51 10 351 329 293 236 170 55 67 106 119 80 48 15 15 25 11 10 15 20 29 87 159 169 179 195 206 218 223 223 216 212 210 206
215 222 212 206 253 244 256 316 328 265 69 -0 2 5 358 80 161 58 43 47 42 39 28 16 23 31 17 19 27 36 33 100 141 149 159 176 193 207 213 210 207 204 200 201
356 232 216 231 250 279 349 316 308 64 23 344 3 16 21 47 36 41 32 34 23 6 5 6 8 20 24 25 31 42 55 107 141 148 160 171 180 188 195 200 200 197 191 188
212 256 256 242 220 239 333 23 68 351 355 4 11 26 22 28 34 29 28 22 15 5 357 1 9 14 17 20 30 31 43 106 135 151 167 174 178 180 184 190 188 187 186 182
287 170 217 231 168 157 78 109 114 74 44 18 17 9 12 14 11 10 9 5 1 353 347 348 356 0 5 5 19 31 53 105 134 160 170 174 175 174 174 184 185 180 182 180
303 180 187 58 257 203 199 270 84 106 59 21 26 360 350 352 355 358 352 350 342 337 333 336 340 347 351 2 24 36 64 118 146 172 174 171 174 172 171 175 180 183 182 179
195 127 189 253 264 271 252 130 158 144 106 143 299 314 334 333 332 324 328 328 326 319 316 321 325 329 335 353 13 66 126 147 178 180 173 170 172 172 170 173 178 182 183 189
193 199 201 255 316 287 78 112 106 116 118 239 287 293 294 311 299 293 291 299 303 300 302 304 308 312 322 332 350 140 158 156 188 191 173 170 169 164 163 165 160 169 181 185